CAPE
3100 2866 2442 1696 1789 2148 2162 1599 267 0 0 0 0 0 14 122 54 62 58 166 145 104 358 80 47 92 1 5 183 153 161 184 239 0 0 88 376 517 458 500 714 704 760 891 821 1030 1153 1526 1509 1335 1325 1536 1185 1258 1353 1333 1664 2130 2280 2284 2116 2184 2108 2188 2522 2481 2314 2296 2640 2790 2882 3109 3262 3526 3449 3411 3390 3088 3218 3299 3283 3330 3435 3439 3386 3044 3173 3103 3035 2993 3012 2844 2984 3061 3080 3199 3162
3068 2800 2178 2043 1709 1642 1833 1686 0 0 0 4 2 4 50 76 88 24 104 179 273 398 271 170 137 131 134 117 179 219 199 240 307 334 352 412 584 642 498 608 654 901 980 1004 1013 1160 1255 1138 1546 1493 1592 1568 1634 1708 1560 1492 1781 1902 1959 1987 2178 2033 1779 1920 2162 2486 2361 2512 2773 2701 2594 2748 2890 3344 3362 3386 3359 3293 3213 3220 3150 3260 3366 3248 3190 2986 2985 3068 3090 2968 3054 3022 3006 2985 2952 2975 3037
3171 2376 2074 2282 1795 2270 2246 1433 0 0 0 0 0 0 15 81 112 173 338 414 393 298 369 104 89 135 156 73 115 149 79 329 372 501 638 663 670 556 546 776 757 848 989 1011 1167 1322 1455 1501 1674 1691 1842 1806 1582 1820 1937 1869 1871 1788 1918 2099 1855 1812 1779 1923 2128 2417 2444 2733 2689 2276 2152 2362 2734 3275 3359 3344 3285 3164 3206 3168 3192 3205 3212 3212 3064 3016 3045 3166 3265 3169 3223 3255 3201 3146 3063 3054 3001
3090 1990 1870 1968 2162 2278 1564 7 0 0 0 0 4 28 23 114 265 370 465 423 313 316 318 284 227 81 99 172 206 179 323 416 458 522 564 738 670 697 736 980 1007 930 1028 936 1197 1426 1625 1714 2135 2612 1816 1955 2352 2415 2354 2329 2065 1743 1539 1953 2074 2119 1736 1637 1836 2186 2301 2446 2116 2120 2364 2449 3268 3199 3301 3189 3025 3000 3244 3118 3158 3244 3319 3247 3157 3217 3170 3312 3318 3178 2974 3136 3002 2974 3041 2819 2770
2662 2083 1470 1894 2153 1456 1203 0 0 0 27 0 92 20 220 286 380 431 473 430 312 404 296 239 323 380 259 258 342 246 440 539 644 786 772 1002 987 1092 1036 1117 1099 1163 1096 1051 1207 1340 1547 1669 1926 2268 2412 2209 2639 2664 2682 2458 2347 1988 1826 1956 2039 2363 2030 1746 1906 2292 2642 2750 2679 2652 2965 3199 3110 3152 3099 3008 2929 3174 3270 3249 3390 3255 3207 3096 3070 3114 3165 3198 3193 3098 2640 3019 2893 2915 2872 2681 2567
1958 1446 1515 1535 1574 1164 502 0 0 0 0 0 98 286 204 221 144 408 470 424 369 526 350 88 148 302 369 299 317 392 456 465 656 809 856 981 1186 1214 1125 1270 1278 1339 1140 1189 1148 1218 1438 1775 1862 1792 2226 2398 2607 2577 2668 2447 2263 2249 2244 1980 1960 2332 2177 2170 2268 2527 2582 2786 2869 2918 2775 2787 2915 3010 3034 3154 3189 3142 3154 3201 3191 3163 3064 3140 3129 3133 3139 3231 3159 3122 3189 3039 2706 2697 2326 2311 2302
1270 1268 1173 1336 1349 943 267 0 0 0 0 117 231 357 235 241 424 416 464 462 494 429 320 217 299 275 441 628 544 541 604 674 827 775 960 1119 1221 1228 1270 1300 1408 1519 1488 1410 1220 1374 1596 1862 1868 2180 2564 2678 2634 2575 2476 2530 2374 2290 2348 2303 2261 2228 2114 2126 1839 2121 2613 2742 2792 2653 2685 2843 2966 2955 3032 3078 3097 3045 3043 3072 3219 3196 3300 3202 3254 3316 3292 3174 3147 3185 3060 2898 2824 2648 2525 2411 2347
1002 1038 989 890 203 0 0 0 0 0 8 320 321 176 141 431 384 379 460 430 46 381 307 328 498 532 545 564 646 864 920 944 969 1103 1139 1100 1158 1246 1328 1434 1571 1614 1686 1590 1352 1474 1976 2010 2349 2551 2682 2808 2682 2524 2360 2378 2409 2350 2431 2482 2311 1998 2257 2206 2020 2203 2534 2404 2495 2447 2592 2840 2768 2821 2988 3054 3099 3053 2994 3138 3311 3322 3287 3282 3330 3309 3215 3182 3177 2991 3103 2908 2850 2793 2566 2392 2374
812 992 1058 804 0 0 0 0 0 0 100 157 90 464 435 484 262 164 306 335 356 376 292 220 102 100 643 738 753 906 952 1111 1190 1289 1067 1100 1187 1250 1354 1485 1589 1690 1742 1636 1548 1746 1822 2283 2473 2676 2785 2744 2605 2543 2704 2788 2681 2488 2649 2708 2796 3001 3010 3046 2976 2942 2656 2721 2732 2606 2569 2601 2655 2758 2926 2958 3030 3101 3030 3163 3201 3280 3266 3264 3206 3237 3028 3105 2902 2901 2875 2677 2482 2131 2490 1765 1869
1049 849 348 270 0 0 0 0 8 24 287 126 195 326 468 255 272 272 241 300 334 341 667 597 511 575 659 600 915 978 988 1248 1196 1153 1117 1123 1190 1313 1380 1387 1516 1543 1669 1672 1629 1616 1717 2326 2645 2822 2844 2762 2668 2742 2765 2729 2703 2660 2563 2921 2924 2926 2972 2924 2908 2904 2878 2780 2726 2698 2764 2717 2728 2890 2934 2996 3110 3085 3022 2975 3163 3195 3172 3120 2891 3030 2848 2757 2636 2613 2453 2307 2110 1984 2030 2002 2146
942 880 94 0 0 0 0 0 40 118 186 194 203 199 462 288 270 230 286 434 594 694 602 492 515 572 653 760 935 996 1100 1197 1179 1122 1121 1164 1297 1313 1363 1476 1558 1664 1727 1662 1683 1604 1802 2250 2817 2831 2930 2710 2651 2786 2845 2828 2728 2714 2868 2922 2915 2915 2896 2954 2946 2953 2982 2896 2876 2837 2768 2776 2884 2899 2924 2986 3028 2998 3162 3110 3138 3116 3094 2882 2934 2693 2728 2675 2624 2604 2418 2151 1995 2004 1843 1518 1277
757 761 214 0 0 0 0 0 303 365 349 222 278 370 388 408 342 404 423 515 574 534 447 407 448 662 708 775 771 1076 1074 1133 1130 1123 1224 1299 1278 1325 1388 1485 1602 1738 1730 1707 1712 1500 1826 2203 2602 2710 2803 2504 2656 2685 2773 2736 2809 2933 2978 2894 2847 2824 2835 2837 3050 2936 2930 2901 2903 2897 2884 2857 2895 2854 2846 2936 2940 3192 3105 3146 3086 3023 2942 2832 2806 2788 2442 2609 2572 2728 2813 2496 2470 2070 1951 1926 2206
930 0 0 0 0 0 0 264 366 395 381 332 331 391 506 374 339 382 525 572 480 328 444 500 550 478 474 856 1114 1016 1064 1154 1145 1184 1371 1438 1323 1292 1362 1468 1601 1785 1769 1774 1703 1679 1761 2093 2262 2365 2881 2778 2710 2664 2724 2717 2870 2886 2747 2656 2585 2636 2678 2771 2887 2788 2772 2886 2831 2792 2812 2864 2831 2974 3054 3054 3020 3056 3022 2960 3148 3110 2868 2721 2838 2576 2517 2158 2113 1994 2202 2177 2211 2302 2244 2337 2078
796 0 0 0 0 0 0 0 405 393 382 396 410 540 556 442 402 496 576 485 352 593 597 540 638 684 818 883 1039 999 1082 1185 1215 1382 1494 1445 1291 1235 1291 1415 1554 1758 1885 1928 1964 1868 2065 2114 2193 2406 2724 2678 2630 2900 2799 2881 2864 2764 2612 2556 2554 2636 2615 2706 2738 2641 2656 2777 2824 2831 2782 2862 2940 2934 2956 2920 2983 2897 2776 2838 2989 2820 2491 2558 2548 2489 2236 1919 1988 1901 1887 1819 1906 1984 1834 2037 2206
778 0 0 0 0 0 0 89 366 171 378 445 472 626 590 586 466 558 439 346 603 600 620 782 636 439 549 846 788 880 1138 1238 1290 1475 1572 1409 1352 1256 1276 1426 1605 1778 1841 1981 2108 2252 2284 2276 2262 2529 2596 2688 2629 2677 2732 2908 2820 2814 2778 2841 2817 2790 2911 2753 2611 2606 2650 2686 2736 2887 2776 2777 2780 2886 2846 2916 2845 2904 2882 2844 2856 2848 2888 2614 2462 2258 1900 1663 1398 1778 1937 2040 2076 2085 1881 1847 1742
32 0 0 0 0 0 0 0 1 21 350 495 608 656 604 614 550 419 384 669 650 612 732 754 662 680 438 654 691 971 1186 1285 1486 1672 1551 1463 1368 1300 1292 1434 1572 1698 1763 1986 2103 2288 2375 2394 2456 2505 2572 2617 2592 2658 2704 2742 2812 2884 2902 3046 2915 2843 2807 2686 2548 2599 2650 2702 2640 2768 2684 2875 2713 2694 2806 2841 2770 2757 2760 2898 3030 2975 2731 2367 2280 1768 1782 1615 1513 1677 1677 1740 2058 2106 1889 1782 1478
0 0 0 0 0 0 0 0 0 22 328 556 680 620 548 602 476 760 688 622 590 601 616 631 824 516 626 782 869 1149 1254 1406 1774 1689 1594 1488 1429 1328 1276 1346 1476 1578 1750 1959 2107 2224 2287 2348 2438 2431 2518 2500 2516 2648 2648 2669 2889 2758 2774 2911 2886 2824 2766 2749 2690 2685 2690 2641 2679 2711 2848 3482 2833 2816 2946 2783 3216 3504 3516 3007 2964 2614 2386 1990 1962 1806 1823 1773 1798 1812 1696 2096 2089 1966 1802 1814 1708
0 0 0 0 0 0 0 0 0 1 196 555 666 542 523 534 558 642 635 540 468 624 700 727 738 745 809 883 1052 1235 1310 1530 1745 1622 1563 1454 1344 1188 1128 1251 1384 1462 1659 1865 2062 2186 2263 2291 2414 2352 2485 2439 2492 2607 2630 2645 2798 2934 2614 2786 2944 2736 2713 2787 2955 2768 2750 2570 2723 2805 2780 3312 2579 2638 2650 3930 3374 3592 3529 3167 2346 2137 2294 2220 2621 2290 2167 2087 1982 1942 1999 1828 2064 2050 2170 2044 2012
0 0 0 0 0 0 0 0 0 20 302 543 571 498 470 348 665 562 486 506 614 688 752 868 914 979 992 998 1134 1264 1397 1561 1714 1610 1470 1329 1240 1105 1070 1167 1233 1346 1476 1727 1958 2186 2213 2279 2416 2385 2438 2428 2460 2536 2560 2628 2631 2605 2708 2786 2860 2928 3298 3102 2655 3272 2503 2508 2457 2593 2777 2861 2600 2527 2638 2927 3333 3300 3652 3088 2764 2268 2726 2864 2844 2431 2310 2269 2184 2283 2131 2129 2184 2146 2282 2374 2214
0 0 0 0 0 0 0 0 0 34 208 494 492 407 242 512 576 511 350 504 641 695 756 852 992 1094 1096 1118 1189 1311 1440 1546 1652 1628 1507 1357 1207 1080 1066 1075 1139 1228 1335 1536 1701 2068 2170 2237 2338 2401 2437 2390 2422 2482 2492 2605 2667 2612 2680 2680 2687 2730 2748 2868 2550 2755 2472 2462 2365 2499 2618 2615 2767 2580 3451 3452 2976 3124 2639 3394 3101 2986 2951 2882 2912 2853 3078 3084 2475 2370 2457 2303 2354 2704 2420 2231 2039
0 0 0 0 0 0 0 0 0 0 132 437 476 268 255 582 373 346 362 514 642 636 686 785 1003 1145 1204 1232 1263 1338 1487 1548 1592 1585 1510 1393 1202 1064 1040 1082 1134 1154 1259 1469 1667 1912 2110 2160 2230 2358 2382 2383 2384 2410 2424 2542 2636 2662 2700 2686 2676 2603 2454 2666 2477 2651 2527 2470 2386 2519 2622 2725 2639 2632 2555 2464 2555 2679 2644 2604 2626 2619 2552 2506 2620 2324 2183 2000 2078 1988 1846 1930 1667 1668 1904 1848 1906
0 0 0 0 0 0 0 0 0 118 266 472 336 187 356 376 348 410 421 314 498 634 679 742 1022 1177 1303 1335 1357 1464 1543 1560 1585 1572 1473 1353 1159 1075 1070 1093 1131 1222 1428 1466 1539 1812 2041 2179 2153 2251 2323 2367 2354 2389 2410 2490 2628 2615 2630 2586 2576 2570 2439 2631 2491 2490 2605 2570 2507 2532 2841 2676 2671 2600 2462 2356 2315 2462 2543 2451 2468 2596 2590 2556 2448 2350 2191 1947 1482 1217 1240 1234 1453 1629 1606 1659 1825
0 0 0 0 0 0 0 0 0 26 379 474 295 192 233 318 425 444 405 448 378 584 685 845 1079 1246 1350 1404 1434 1531 1556 1558 1590 1578 1486 1358 1186 1104 1090 1102 1172 1234 1458 1432 1492 1682 1908 2086 2155 2167 2240 2260 2268 2322 2363 2416 2658 2613 2593 2584 2574 2594 2556 2498 2624 2536 2498 2596 2607 2578 2669 2672 2697 2646 2499 2291 2251 2218 2206 2189 2136 2100 2147 2264 2319 2225 2012 1704 1313 1175 1118 1308 1546 1410 1236 1335 1670
0 0 0 0 0 0 0 0 0 14 408 332 108 152 282 205 480 375 408 228 334 637 792 963 1151 1300 1384 1460 1458 1514 1527 1566 1594 1592 1504 1384 1219 1168 1138 1133 1154 1219 1397 1439 1488 1648 1951 1948 2094 2128 2184 2196 2206 2224 2321 2356 2618 2613 2578 2996 2775 2576 2573 2508 2528 2602 2536 2507 2589 2624 2628 2554 2569 2564 2488 2448 2352 2298 2248 2157 2093 1988 2022 2028 2017 1845 1650 1420 1258 1137 1188 1233 1326 1193 1080 1302 1393
0 0 0 0 0 0 0 0 0 0 4 24 108 235 218 207 260 327 256 626 656 752 856 1007 1207 1300 1375 1461 1514 1504 1526 1535 1590 1590 1520 1416 1304 1327 1205 1148 1188 1240 1337 1448 1492 1627 1772 1990 2018 2114 2136 2146 2162 2172 2272 2342 2473 2594 2586 2592 2653 2931 2750 2526 2471 2521 2553 2511 2488 2498 2527 2503 2470 2405 2380 2354 2333 2269 2220 2199 2125 1988 1857 1744 1426 1158 1154 1219 1228 1248 1334 1384 1467 1604 1596 1454 1274
0 0 0 0 0 0 0 0 0 0 60 40 152 164 50 53 140 234 578 708 726 805 920 1046 1209 1298 1404 1467 1508 1512 1516 1523 1578 1575 1516 1438 1441 1431 1292 1212 1238 1282 1318 1426 1496 1611 1728 1836 1976 2035 2082 2136 2132 2140 2222 2300 2352 2488 2548 2541 2499 2987 2823 2584 2453 2419 2460 2508 2494 2438 2376 2403 2402 2332 2279 2264 2294 2330 2337 2308 2166 1918 1702 1433 1074 1083 1214 1302 1324 1346 1474 1612 1734 1764 1762 1792 1726
0 0 0 0 0 0 0 0 0 0 24 53 123 40 82 96 235 237 718 813 797 860 908 1033 1160 1251 1384 1437 1516 1525 1521 1513 1542 1522 1442 1443 1491 1432 1332 1247 1286 1300 1389 1429 1487 1574 1772 1792 1883 2034 2068 2314 2123 2132 2180 2240 2274 2326 2399 2473 2451 2612 2656 2616 2504 2392 2347 2379 2426 2422 2387 2370 2314 2234 2263 2316 2357 2384 2330 2276 2175 1971 1629 1299 1228 1225 1245 1325 1460 1647 1869 1952 1887 1754 1575 1635 1733
0 0 0 0 0 0 0 0 0 4 19 23 46 56 70 116 129 155 743 810 830 885 909 976 1078 1172 1309 1360 1451 1525 1504 1488 1489 1433 1395 1420 1496 1422 1328 1289 1308 1329 1363 1416 1487 1578 1652 1697 1774 1962 2046 2220 2185 2126 2258 2168 2188 2220 2252 2298 2336 2360 2437 2490 2448 2413 2368 2345 2374 2402 2415 2366 2303 2231 2244 2297 2307 2285 2244 2136 2112 1951 1663 1471 1376 1356 1402 1668 1482 1505 1594 1918 2014 1891 1822 1706 1739
0 0 0 0 0 0 0 2 5 10 26 6 67 138 227 138 172 252 786 788 833 874 922 938 1016 1102 1217 1255 1339 1412 1410 1402 1376 1340 1354 1368 1436 1415 1349 1336 1374 1407 1417 1440 1509 1680 1616 1614 1629 1845 1981 2097 2253 2116 2114 2159 2153 2183 2208 2158 2151 2184 2244 2373 2346 2316 2329 2349 2330 2320 2312 2278 2222 2175 2154 2187 2127 1934 1864 1874 1992 1920 1862 1630 1611 1590 1660 1600 1600 1900 2067 1996 1838 1802 1735 1621 1663
0 0 0 0 0 0 0 15 16 32 36 48 120 200 116 100 67 454 876 801 796 841 902 923 970 1040 1126 1167 1252 1310 1276 1281 1301 1306 1322 1341 1337 1380 1380 1421 1514 1481 1542 1596 1612 1704 1740 1664 1696 1839 1974 1968 2249 2123 2101 2161 2175 2202 2218 2234 2180 2036 2042 2160 2298 2317 2306 2284 2259 2227 2175 2121 2064 2014 2000 1984 1652 1639 1692 1828 1788 1830 1835 1797 1822 1568 1494 1650 1918 2022 2027 1870 1804 1769 1757 1608 1558
0 0 0 0 0 0 0 32 23 73 29 96 2 14 7 14 96 601 858 821 771 792 848 890 932 983 1047 1087 1159 1200 1221 1246 1268 1272 1280 1295 1280 1286 1314 1402 1520 1567 1712 1686 1726 1751 1992 1826 1820 1871 2184 1924 2433 2178 2253 2176 2218 2226 2210 2252 2264 2207 1954 1930 2062 2206 2262 2223 2178 2152 2123 2098 2102 2022 1914 1738 1601 1711 1880 1753 1784 1726 1688 1770 1672 1729 1814 1964 2065 2056 2018 1848 1793 1680 1599 1638 1695
0 4 0 0 0 0 21 0 29 116 54 36 0 0 0 13 302 611 838 814 750 731 802 850 890 920 977 1026 1062 1080 1135 1179 1201 1219 1237 1260 1250 1244 1265 1339 1455 1596 1681 1746 1785 1787 1853 1930 2404 1969 2248 1996 2056 2258 2161 2168 2199 2203 2207 2208 2192 2178 2108 1764 1760 1879 1931 1884 1871 1957 2055 2158 2184 2121 1941 1665 1669 1748 1746 1841 1738 1566 1495 1496 1502 1653 1954 2113 2044 2074 1961 1868 1738 1700 1674 1578 1492
0 0 0 0 0 6 43 8 74 151 190 199 140 0 5 116 366 614 804 808 733 719 778 818 853 875 904 950 1003 1029 1055 1093 1123 1160 1190 1210 1227 1203 1232 1275 1366 1514 1638 1717 1767 1798 1814 1936 2704 2100 2155 2107 2017 2198 2184 2114 2098 2115 2127 2110 2068 2069 2112 1998 1867 1822 1695 1604 1692 1848 2008 2007 1951 1866 1686 1406 1512 1617 1677 1837 2062 1857 1636 1734 1924 2102 2157 2062 1979 1875 1728 1679 1697 1788 1598 1494 1399
0 0 0 0 0 2 63 98 162 177 238 228 1 5 15 239 382 594 739 774 716 698 750 798 820 828 851 868 906 946 1002 1044 1074 1124 1137 1161 1144 1148 1166 1373 1278 1388 1536 1654 1731 1780 1804 1874 2218 2216 2151 2181 2124 2126 2184 2109 2032 2027 2021 2006 2065 2082 2032 2006 1921 1769 1578 1548 1599 1642 1546 1454 1703 1460 1456 1409 1400 1570 1713 1997 2036 1688 1902 1964 2057 2159 2120 1999 1755 1611 1482 1348 1565 1656 1566 1440 1292
0 0 0 0 0 0 76 99 164 156 231 202 64 41 120 233 398 565 677 742 694 666 701 750 788 794 818 819 824 835 868 912 926 1002 1021 1024 1034 1026 1089 1178 1236 1303 1424 1576 1667 1729 1753 1820 2034 2486 2335 2192 2190 2152 2200 2135 2083 2049 2003 2095 2242 2162 2009 1925 1758 1598 1528 1430 1450 1696 1724 1745 1811 1716 1576 1549 1725 1853 2024 2074 1580 1776 1894 2014 2034 2068 1814 1433 1326 1268 1318 1290 1397 1378 1330 1296 1249
0 0 0 0 0 38 87 114 178 172 228 180 101 42 115 270 404 530 620 688 663 618 631 666 722 738 750 760 764 737 722 747 796 838 868 888 902 928 1033 1141 1200 1240 1338 1481 1601 1673 1709 1765 1892 2182 2387 2183 2199 2202 2215 2227 2196 2122 2087 2138 2221 2143 2012 1837 1659 1500 1368 1395 1821 1899 1905 1940 1862 1660 1543 1438 1544 1614 1436 1389 1517 1653 1905 1803 1912 1475 1117 1095 1174 1219 1415 1393 1380 1185 1074 1227 1274
0 0 0 0 0 0 65 102 181 176 195 138 98 24 104 259 366 490 556 602 597 554 545 570 616 644 638 627 640 634 625 650 659 736 776 795 824 866 959 1104 1174 1202 1265 1380 1528 1610 1669 1719 1824 2010 2232 2216 2168 2183 2216 2252 2226 2177 2118 2148 2129 2044 1919 1881 1798 1652 1492 1871 2044 2007 2018 1958 1683 1464 1409 1330 1232 1164 1250 1371 1548 1854 1864 1566 1336 1196 1032 1003 1016 1229 1454 1488 1356 1139 906 1123 1140
0 0 0 0 0 0 16 66 108 158 145 106 80 19 86 202 321 416 486 518 516 468 434 441 462 505 494 499 509 560 597 620 666 665 682 677 690 774 859 1004 1118 1154 1208 1287 1422 1528 1566 1627 1724 1866 2044 2197 2162 2132 2166 2217 2237 2148 2054 2039 2076 2050 2072 2230 1890 1855 2078 2166 2097 2069 2105 1994 1613 1442 1413 1272 1128 1125 1211 1344 1666 1913 1530 1231 739 636 736 926 948 1124 1385 1241 1242 1054 842 1008 1151
0 0 0 0 0 0 0 0 2 82 54 76 0 21 12 154 254 382 427 426 421 425 372 267 46 38 135 60 100 493 563 620 620 652 622 675 717 753 761 846 992 1075 1132 1200 1326 1414 1464 1503 1572 1687 1825 2051 2147 2146 2141 2163 2178 2167 2074 2020 2118 2118 2082 2276 2174 2198 2216 2182 2133 2171 2183 1769 1516 1473 1364 1230 1080 1106 1256 1507 1834 1566 1328 578 533 689 876 802 854 1046 1351 1180 1067 884 662 1022 1144
0 0 0 0 0 0 0 0 0 0 0 0 0 10 58 108 204 322 372 399 374 388 376 3 6 14 16 31 66 361 524 590 608 606 618 633 735 784 778 748 856 960 1054 1136 1208 1300 1342 1364 1417 1501 1628 1826 2026 2112 2289 2110 2098 2120 2116 2134 2219 2021 2113 2282 2300 2304 2254 2209 2151 2055 1976 1740 1357 1451 1345 1226 1144 1226 1510 1836 1715 1632 1359 568 660 632 671 575 680 951 1052 1107 879 439 478 769 915
0 0 0 0 0 0 0 0 0 0 0 0 0 0 0 28 122 220 318 351 342 342 177 0 0 2 6 14 46 398 461 538 587 583 562 586 650 732 763 751 769 896 992 1072 1107 1172 1221 1254 1270 1322 1438 1638 1872 2136 2439 2057 2150 2150 2194 2259 2165 2076 1989 2102 2155 2134 2113 2057 1898 1768 1783 1677 1376 1492 1431 1410 1504 1646 1583 1532 1356 1011 218 580 695 641 511 570 758 964 1095 933 879 788 505 518 780
0 0 0 0 0 0 0 0 0 0 0 0 0 0 0 0 62 129 183 276 309 183 0 0 0 0 0 1 8 6 40 416 511 480 442 466 502 586 639 666 753 860 965 1011 1018 1030 1091 1150 1177 1200 1284 1504 1756 1887 2184 2105 2407 2121 2208 2248 2154 2060 2040 1977 1976 2065 2010 1874 1672 1423 1612 1556 1409 1553 1572 1740 1665 1292 1078 1121 800 328 198 590 731 620 516 630 612 936 1117 1063 926 872 852 553 478
0 0 0 0 0 0 0 0 0 0 0 0 0 0 0 0 0 56 106 167 242 232 0 0 0 6 5 3 3 0 4 22 412 289 332 318 369 238 286 459 670 815 899 918 911 887 974 1060 1090 1122 1196 1424 1664 1808 2067 2135 2117 2145 2197 2236 2171 2120 2042 2014 2000 2018 2011 1763 1284 1390 1582 1574 1592 1627 1715 1348 977 426 240 250 111 164 222 565 892 608 557 593 613 845 1231 1121 1039 914 849 559 410
0 0 0 0 0 0 0 0 0 0 0 0 0 0 0 0 0 0 75 94 145 210 191 174 36 14 36 30 15 0 0 29 147 287 321 350 415 392 378 404 586 730 781 790 788 880 952 1066 1084 1110 1212 1538 1598 1752 1997 2124 2107 2144 2198 2210 2143 2057 1989 2088 2056 2006 1655 1199 1160 1486 1687 1730 1726 1656 301 0 0 250 104 44 89 93 153 450 980 715 550 598 601 637 967 930 928 882 927 739 604
0 0 0 0 0 0 0 0 0 0 0 0 0 0 0 0 0 0 0 0 24 109 138 147 124 129 144 126 55 11 0 25 153 376 442 427 552 538 472 441 470 586 648 723 894 1013 1081 1142 1252 1223 1287 1510 1609 1766 2001 2110 2102 2102 2127 2136 2088 2057 2098 2174 2111 1709 1294 903 696 1015 1343 1227 1006 270 0 0 0 22 706 132 128 146 188 428 964 658 570 680 571 512 514 633 632 725 824 848 750
0 0 0 0 0 0 0 0 0 0 0 0 0 0 0 0 0 0 0 0 2 87 87 82 97 125 134 155 152 130 56 15 127 394 501 500 601 656 616 532 567 602 694 926 1023 1133 1222 1268 1403 1441 1440 1549 1682 1838 2087 2097 2140 2102 2108 2105 2093 2123 2160 2230 2022 1711 1392 993 0 0 0 0 0 0 0 0 31 27 672 253 142 214 170 122 764 387 463 614 578 453 547 617 690 466 622 756 586
0 0 0 0 0 0 0 0 0 0 0 0 0 0 0 0 0 0 0 0 36 72 8 72 90 126 120 146 159 210 119 28 113 405 567 580 627 738 764 760 711 693 798 1016 1179 1260 1359 1385 1501 1637 1618 1662 1786 1938 2071 2103 2168 2150 2107 2080 2114 2137 2112 2130 1942 1654 1431 838 0 0 0 0 0 0 0 2 0 85 361 318 209 114 83 559 998 299 157 199 467 298 316 321 391 44 34 476 597
0 0 0 0 0 0 0 0 0 0 0 0 0 0 0 0 0 0 0 11 47 42 45 67 55 103 131 142 171 208 246 220 191 392 613 670 700 800 894 923 888 878 956 1128 1293 1373 1493 1512 1561 1727 1737 1768 1851 2002 2112 2106 2152 2158 2096 2088 2129 2124 2134 2109 1994 1766 1120 0 0 0 0 0 0 0 0 3 47 27 215 196 140 68 146 201 390 90 102 239 283 460 342 123 66 0 0 84 15
0 0 0 0 0 0 0 0 0 0 0 0 0 0 0 0 0 0 0 0 7 6 14 16 8 21 36 140 161 184 262 296 294 347 604 729 791 882 980 1045 1050 1084 1166 1234 1390 1481 1568 1627 1624 1714 1799 1845 1871 2009 2130 2095 2080 2084 2090 2104 2162 2204 2240 2197 2084 1740 761 0 0 0 0 0 0 0 0 14 20 24 111 37 44 14 65 119 66 20 92 180 234 448 342 39 7 70 46 44 52
0 0 0 0 0 0 0 0 0 0 0 0 0 0 0 0 0 0 0 0 0 0 3 6 1 10 18 111 161 178 228 316 353 366 580 764 854 928 1017 1097 1167 1242 1335 1390 1503 1637 1672 1740 1740 1704 1765 1886 1922 1979 2118 2104 2073 2066 2124 2174 2212 2291 2367 2310 2128 1422 0 0 0 0 0 0 0 0 2 2 17 0 65 25 98 28 2 3 96 46 89 161 184 223 158 171 113 60 3 39 136
0 0 0 0 0 0 0 0 0 0 0 0 0 0 0 0 0 0 0 0 0 0 0 0 0 0 4 19 110 144 195 285 358 403 552 768 901 992 1071 1132 1218 1317 1459 1546 1641 1779 1787 1837 1871 1872 1810 1881 1976 1984 2066 2125 2112 2117 2173 2222 2303 2421 2456 2300 1768 564 0 0 0 0 0 0 0 0 0 5 0 0 15 2 22 10 2 8 78 220 443 228 319 290 338 202 223 18 23 63 78
0 0 0 0 0 0 0 0 0 0 0 0 0 0 0 0 0 0 0 0 0 0 0 0 0 0 0 0 22 107 185 284 360 432 531 715 900 1018 1106 1166 1240 1344 1530 1660 1787 1919 1962 1972 2000 2026 1991 1966 2014 2024 2041 2097 2126 2184 2271 2384 2507 2532 2349 1912 907 0 0 0 0 0 0 0 0 0 0 0 0 2 0 2 75 103 10 6 17 68 96 229 178 236 228 294 346 322 111 58 130
0 0 0 0 0 0 0 0 0 0 0 0 0 0 0 0 0 0 0 0 0 0 0 0 0 0 0 0 5 64 181 280 376 489 571 694 864 1008 1131 1222 1279 1344 1510 1720 1858 2006 2108 2123 2134 2160 2142 2074 2053 2058 2067 2121 2197 2262 2388 2543 2570 2406 2030 1270 0 0 0 0 0 0 0 0 0 0 0 0 0 0 0 0 2 17 30 10 2 16 48 60 74 177 280 126 165 48 206 167 58
0 0 0 0 0 0 0 0 0 0 0 0 0 0 0 0 0 0 0 0 0 0 0 0 0 0 0 0 1 30 136 283 396 512 624 724 863 1006 1124 1250 1330 1382 1473 1692 1874 2021 2148 2197 2202 2229 2234 2180 2100 2048 2060 2132 2262 2343 2466 2569 2503 2250 1648 772 0 0 0 0 0 0 0 0 0 0 0 0 0 0 0 276 9 0 4 2 6 0 2 6 12 40 65 92 90 20 26 108 182
0 0 0 0 0 0 0 0 0 0 0 0 0 0 0 0 0 0 0 0 0 0 0 0 0 0 0 0 0 15 62 228 386 518 632 764 885 1015 1121 1230 1342 1418 1480 1594 1820 2006 2132 2200 2220 2234 2276 2263 2186 2134 2124 2182 2304 2437 2558 2585 2417 2044 1278 552 0 0 0 0 0 0 0 0 0 0 3 0 1 0 0 2 21 7 0 1 0 0 0 0 0 13 22 66 43 10 20 47 76
0 0 0 0 0 0 0 0 0 0 0 0 0 0 0 0 0 0 0 0 0 0 0 0 0 0 0 0 0 16 72 143 327 493 607 728 878 1018 1141 1226 1328 1429 1504 1566 1710 1953 2129 2202 2215 2230 2248 2270 2249 2263 2260 2309 2436 2557 2590 2562 2334 1763 1040 140 0 0 0 0 0 0 0 0 0 0 0 0 0 0 0 0 0 8 6 0 0 0 0 0 0 1 14 50 57 11 34 86 153
0 0 0 0 0 0 0 0 0 0 0 0 0 0 0 0 0 0 0 0 0 0 0 0 0 0 0 0 0 18 78 112 219 417 572 697 824 974 1120 1214 1288 1401 1494 1570 1636 1888 2117 2216 2221 2216 2217 2240 2272 2309 2376 2440 2525 2620 2608 2528 2304 1584 875 44 0 0 0 0 0 0 0 0 0 0 0 0 0 0 0 0 0 12 13 6 0 0 0 0 0 2 0 1 2 1 29 80 102
0 0 0 0 0 0 0 0 0 0 0 0 0 0 0 0 0 0 0 0 0 0 0 0 0 0 0 0 0 12 31 96 145 292 470 625 779 913 1054 1167 1272 1342 1450 1530 1609 1803 2036 2196 2250 2253 2228 2226 2258 2310 2376 2485 2529 2582 2575 2474 2260 1510 725 0 0 0 0 0 0 0 0 0 0 0 0 0 0 0 0 0 0 0 0 0 0 0 0 0 0 0 0 0 1 0 1 30 23
Wind_Speed
16 15 15 17 17 17 14 16 14 nan nan nan nan nan nan 12 nan nan nan 10 11 15 12 nan nan nan nan nan 10 15 22 19 20 nan nan nan 13 12 10 12 13 13 13 13 13 13 10 5 6 12 13 11 12 12 9 5 9 12 13 13 14 15 15 12 11 12 12 12 12 13 14 15 14 13 11 10 9 9 10 10 10 10 10 11 12 12 13 13 11 9 7 6 6 5 3 3 3
15 16 18 19 18 16 16 13 nan nan nan nan nan nan nan nan nan nan 8 8 11 12 10 5 6 8 9 3 8 16 21 20 20 16 11 8 9 9 9 12 13 12 13 13 12 11 11 7 3 6 10 13 18 18 17 18 16 14 13 13 13 14 12 11 9 8 11 11 12 14 16 15 14 11 10 9 9 9 9 10 9 10 11 11 11 12 12 12 11 10 8 7 5 4 3 3 3
18 18 19 20 16 14 13 11 nan nan nan nan nan nan nan nan 14 11 9 5 4 3 5 5 nan 7 10 nan 15 18 nan 14 11 12 10 5 5 9 7 10 12 12 13 13 14 13 11 7 3 5 7 12 14 14 15 16 15 16 15 14 14 12 10 10 9 9 14 14 15 16 16 14 12 10 9 8 9 9 10 10 10 10 11 11 11 11 11 11 11 11 9 7 6 4 4 4 3
19 21 20 19 15 11 12 nan nan nan nan nan nan nan nan 15 15 11 9 8 8 4 8 12 10 nan nan 11 11 12 10 12 14 12 9 8 12 7 6 9 9 10 12 13 14 14 12 4 2 2 5 7 10 12 13 12 13 14 14 13 12 11 10 10 11 13 15 15 16 15 14 11 9 8 7 8 8 9 10 10 10 11 11 11 11 10 10 10 11 11 10 8 6 4 4 5 4
20 22 19 18 15 12 12 nan nan nan nan nan nan nan 13 14 15 12 11 9 6 4 5 7 9 11 3 3 13 13 10 10 14 21 14 9 6 7 7 9 9 8 9 11 12 13 10 2 3 1 4 7 9 10 10 11 10 10 9 8 10 11 11 11 13 14 13 13 13 12 11 9 8 8 8 9 9 9 10 10 11 11 11 11 11 11 10 10 9 9 8 8 7 5 4 5 5
15 17 18 17 16 15 12 nan nan nan nan nan nan 15 12 16 14 11 8 5 5 1 2 nan 6 9 8 8 10 8 5 10 12 18 14 7 2 5 7 8 7 7 7 8 9 10 9 0 1 2 2 5 8 9 9 8 7 6 6 7 8 9 12 12 12 10 12 13 12 11 10 9 9 9 9 9 9 10 10 11 11 11 11 11 12 11 10 9 8 7 7 7 7 7 5 5 6
18 15 18 17 18 14 16 nan nan nan nan 11 13 11 13 14 12 10 8 4 5 3 5 3 7 0 6 8 7 9 9 8 13 14 16 5 2 4 5 7 6 5 6 8 8 7 7 3 5 4 5 4 6 7 9 8 7 7 7 9 9 11 11 12 12 14 14 14 13 12 10 9 9 9 9 10 10 10 11 11 12 11 11 12 12 11 10 9 7 7 6 6 7 6 5 5 6
14 14 18 16 16 nan nan nan nan nan nan 12 13 10 11 11 12 10 9 6 nan 4 2 3 6 2 11 11 6 8 8 11 9 9 7 5 2 4 5 5 4 4 5 7 7 8 4 2 5 5 4 3 4 6 6 8 9 9 10 11 12 13 15 16 17 16 15 14 12 10 9 9 9 10 10 11 11 12 12 12 12 12 12 11 10 10 9 8 7 5 5 6 5 5 5 7 8
14 11 15 14 nan nan nan nan nan nan 12 11 nan 9 7 10 12 10 8 9 4 3 4 5 7 3 10 5 6 5 6 7 6 5 4 4 2 3 5 2 2 2 3 4 6 8 7 2 5 5 5 4 5 5 6 6 7 10 11 11 12 12 13 13 14 13 13 12 11 10 10 10 11 11 12 12 12 12 13 12 13 13 12 10 9 9 9 8 7 6 5 5 5 4 4 4 6
12 12 17 16 nan nan nan nan nan nan 13 13 13 13 11 12 12 13 12 9 9 7 5 5 2 3 4 0 4 7 3 5 5 4 4 4 4 5 4 1 3 2 0 3 5 6 6 3 5 5 4 5 5 5 6 7 9 9 10 10 11 12 12 13 12 12 11 11 10 10 11 11 12 12 13 12 13 12 12 13 13 12 11 10 10 10 9 9 8 8 7 6 5 5 5 3 4
11 13 nan nan nan nan nan nan nan 11 11 11 11 11 12 11 14 15 15 14 11 10 7 7 3 3 4 5 7 3 4 5 5 3 3 4 5 5 3 2 1 3 3 1 2 3 4 6 7 6 5 6 6 7 8 9 10 10 10 10 10 11 11 11 10 10 11 11 11 11 12 12 13 13 13 13 13 13 13 12 12 11 10 10 10 9 8 9 9 9 8 6 5 4 3 3 3
11 13 13 nan nan nan nan nan 12 10 10 11 14 13 13 13 16 16 18 16 15 13 12 9 7 5 3 6 5 3 4 5 6 4 3 5 6 5 4 4 3 3 4 4 2 1 1 3 2 7 7 8 9 10 10 10 10 10 9 10 9 9 10 10 11 11 11 12 12 12 13 14 14 15 14 14 14 13 12 11 9 9 8 8 7 7 6 5 6 6 5 5 4 3 2 2 1
11 nan nan nan nan nan nan 9 12 11 12 16 16 14 11 15 18 19 13 13 15 14 12 7 15 5 3 5 4 3 4 6 7 8 6 5 6 6 5 4 3 4 4 5 5 4 3 1 1 3 7 12 11 11 11 10 10 9 9 9 9 9 10 11 11 12 12 12 13 13 14 15 15 15 14 13 13 12 11 10 9 7 6 6 5 4 2 1 2 2 2 1 1 5 4 2 2
11 nan nan nan nan nan nan nan 11 13 17 15 13 11 12 12 16 18 19 12 13 13 13 12 6 5 4 1 4 5 4 7 9 9 7 7 6 6 6 5 5 5 5 4 5 4 3 3 2 2 5 5 5 8 10 11 10 10 9 9 9 10 11 11 12 12 12 12 13 14 14 14 14 13 12 12 11 10 9 9 8 7 6 4 2 1 4 11 11 9 9 11 9 6 4 4 4
12 nan nan nan nan nan nan nan 18 15 18 16 13 13 11 10 11 12 12 19 9 12 14 9 13 6 10 11 8 8 6 10 10 11 11 9 8 7 7 7 7 7 5 5 5 5 4 4 3 3 3 1 2 2 2 6 10 9 10 10 10 11 11 12 13 13 13 13 13 13 13 13 12 11 12 11 11 11 11 10 8 7 5 3 2 5 8 5 3 3 1 1 2 2 3 4 6
nan nan nan nan nan nan nan nan nan nan 16 16 12 10 7 6 10 10 11 9 11 13 13 14 11 10 10 9 7 9 10 11 9 12 12 11 8 7 7 7 7 7 6 5 4 4 4 3 3 2 2 1 0 0 1 2 7 9 9 10 10 11 12 13 14 14 14 13 12 12 12 10 11 10 12 10 11 12 11 10 9 8 6 4 4 6 10 10 6 4 1 2 1 3 2 3 6
nan nan nan nan nan nan nan nan nan nan 15 13 11 11 9 11 11 7 7 11 16 16 12 10 12 9 15 8 11 10 12 11 11 13 11 8 6 5 5 5 5 5 4 4 3 2 2 2 1 2 2 2 1 1 2 2 4 7 7 9 9 10 11 13 13 15 13 12 10 10 11 7 5 6 5 7 10 8 9 10 10 8 7 5 3 6 8 8 11 13 11 6 7 4 5 4 5
nan nan nan nan nan nan nan nan nan nan 18 15 13 12 12 11 7 7 7 6 7 9 8 8 4 4 8 10 12 12 11 12 13 13 11 9 5 5 5 4 4 5 3 1 0 0 1 0 0 1 1 2 2 2 3 3 5 4 4 6 6 7 9 10 10 8 10 6 10 8 5 6 5 5 6 5 6 8 7 9 9 8 7 6 5 8 12 9 8 10 8 8 10 8 9 10 10
nan nan nan nan nan nan nan nan nan nan 16 17 12 11 11 8 11 10 7 9 8 8 8 7 4 5 8 13 14 13 12 12 11 11 13 12 8 9 6 3 3 3 3 3 2 3 2 2 2 3 3 3 2 3 3 4 5 4 4 5 5 6 6 6 5 7 5 6 4 5 5 5 5 6 6 8 8 11 10 10 11 9 8 7 8 12 12 9 11 12 15 13 11 11 10 12 14
nan nan nan nan nan nan nan nan nan nan 17 14 13 11 5 7 5 8 9 12 7 10 11 8 10 12 14 14 15 14 11 11 10 10 11 11 9 9 8 7 5 5 5 5 5 5 5 4 4 4 4 4 3 3 3 4 4 4 4 4 4 4 4 3 5 5 6 6 4 4 5 6 6 6 8 10 10 6 7 9 12 12 11 11 11 11 13 12 11 11 10 13 12 10 12 9 9
nan nan nan nan nan nan nan nan nan nan 20 15 13 10 5 9 6 5 11 8 7 10 14 14 16 17 17 16 16 15 13 12 10 10 10 9 8 6 6 6 7 6 6 5 6 8 7 6 5 6 5 5 5 5 4 5 4 4 4 4 4 3 2 2 4 5 6 6 5 5 6 8 9 8 8 7 8 9 8 9 9 9 9 10 11 11 12 12 10 10 12 12 12 12 13 13 12
nan nan nan nan nan nan nan nan nan 13 12 15 13 15 12 5 4 6 13 10 10 15 15 9 12 14 17 18 17 14 14 13 12 11 11 12 13 8 6 5 5 5 6 7 9 9 10 8 7 7 6 7 7 7 7 8 6 6 6 6 5 4 4 4 4 6 6 6 6 7 8 9 9 9 9 9 10 9 10 10 11 11 11 12 11 12 12 13 13 12 12 13 13 14 13 14 14
nan nan nan nan nan nan nan nan nan nan 11 12 15 12 9 10 7 11 11 5 9 7 10 12 15 15 13 13 14 15 14 13 13 12 11 12 10 8 7 7 7 8 9 9 9 10 10 10 9 8 9 8 9 8 7 8 7 9 8 7 6 7 5 5 6 7 8 8 8 9 10 10 10 10 10 11 11 11 12 12 12 11 12 12 11 12 13 14 14 14 14 14 15 15 15 15 15
nan nan nan nan nan nan nan nan nan nan 16 14 10 12 14 8 10 12 9 10 7 6 8 10 10 11 12 13 13 14 14 14 14 13 12 13 12 11 9 8 8 7 9 9 9 9 11 12 10 10 10 9 9 8 8 9 8 8 9 9 8 8 6 8 9 9 9 9 9 10 10 10 10 11 11 12 12 12 13 13 12 12 11 11 10 12 13 13 14 15 15 14 14 15 15 15 15
nan nan nan nan nan nan nan nan nan nan nan nan 9 14 17 15 11 12 10 5 4 7 9 9 10 11 11 12 13 12 11 11 11 10 8 7 9 8 8 8 8 8 10 10 10 10 11 11 12 12 11 10 9 8 9 9 9 8 8 8 9 10 9 10 10 9 10 10 10 10 10 10 10 11 12 13 12 13 13 12 11 12 11 11 10 12 12 12 13 14 13 13 13 14 15 15 16
nan nan nan nan nan nan nan nan nan nan nan nan 10 9 nan nan 4 6 8 5 6 9 11 11 11 11 11 12 11 10 9 10 9 9 10 7 8 9 11 10 10 11 12 11 11 12 11 10 11 12 11 10 9 9 9 9 9 10 9 10 9 11 10 10 10 10 10 10 11 11 10 10 11 11 11 11 12 12 12 11 11 12 11 10 10 11 11 12 13 12 13 14 15 15 15 15 15
nan nan nan nan nan nan nan nan nan nan nan nan 12 nan nan nan 9 9 8 8 9 10 12 12 12 12 11 10 9 8 9 9 10 7 6 6 7 9 9 9 11 12 11 11 11 11 10 10 11 12 12 12 9 10 9 10 10 11 11 10 9 10 10 10 10 10 10 11 11 11 10 10 10 9 9 9 10 10 10 9 10 9 9 10 10 10 9 10 10 10 9 11 13 13 14 15 16
nan nan nan nan nan nan nan nan nan nan nan nan nan nan nan 10 8 12 12 12 13 15 14 15 13 13 11 11 9 6 6 6 5 5 8 7 8 8 8 9 10 9 10 11 10 9 9 11 11 12 12 12 11 11 11 11 11 12 11 9 9 10 10 10 9 9 10 11 11 11 10 10 11 10 9 9 9 9 8 8 7 8 9 9 8 8 7 8 9 11 15 16 16 15 15 16 17
nan nan nan nan nan nan nan nan nan nan nan nan nan 4 7 12 13 7 12 14 14 16 15 17 16 14 13 12 9 7 7 5 4 5 8 7 6 7 8 8 7 8 9 9 8 7 9 10 10 12 12 13 12 12 11 11 10 10 9 9 8 9 10 9 10 10 10 10 10 10 10 10 9 9 9 9 9 7 7 7 7 8 7 6 7 7 9 8 10 14 16 16 16 16 16 15 16
nan nan nan nan nan nan nan nan nan nan nan nan 10 5 15 17 nan 12 12 15 13 12 15 16 15 14 13 13 11 9 7 5 5 6 6 6 6 6 7 7 7 7 7 7 6 8 8 8 9 9 11 12 12 10 10 9 9 8 8 7 7 8 8 9 9 9 9 9 9 10 10 9 9 9 9 8 7 8 9 8 4 3 5 6 9 7 9 12 15 16 14 15 16 17 17 16 15
nan nan nan nan nan nan nan nan nan nan nan nan nan nan nan nan nan 15 16 17 19 16 16 16 16 15 14 14 12 11 9 7 7 6 7 7 6 6 7 5 6 6 6 6 7 8 8 8 8 8 10 10 10 9 9 8 7 7 6 6 6 7 7 7 7 7 8 8 8 9 10 10 9 9 9 8 9 9 8 7 6 6 7 9 10 13 14 15 14 14 14 15 14 14 15 15 15
nan nan nan nan nan nan nan nan nan 14 nan nan nan nan nan nan 11 15 17 16 15 16 16 16 16 16 16 15 14 13 11 8 8 7 8 8 7 6 5 5 5 5 6 7 6 5 7 6 7 7 8 9 9 9 8 7 7 7 6 6 6 6 6 6 6 7 8 8 8 9 9 10 10 10 10 9 9 10 11 11 10 10 11 11 11 11 13 14 14 14 14 15 13 12 12 13 15
nan nan nan nan nan nan nan nan nan 8 12 8 8 nan nan 8 11 13 14 16 14 14 14 13 16 17 17 16 15 14 12 11 9 8 7 6 5 5 4 3 3 6 6 4 4 4 5 5 6 6 8 9 9 9 8 8 7 7 7 7 7 6 6 6 6 7 7 8 8 9 10 10 10 10 10 10 10 11 11 10 11 12 11 11 11 12 13 14 15 14 13 15 16 15 14 13 13
nan nan nan nan nan nan nan nan 10 7 11 11 nan nan nan 9 14 16 15 15 13 12 13 13 14 15 16 16 17 16 15 15 15 11 9 6 3 5 3 2 3 4 4 4 4 4 5 4 4 5 5 7 8 8 9 9 8 8 8 8 7 7 7 6 6 7 8 8 8 9 10 10 10 11 11 12 11 11 11 11 12 12 12 11 12 13 13 13 15 16 14 15 18 19 17 14 14
nan nan nan nan nan nan nan nan 14 6 11 9 nan nan 8 6 13 18 17 15 13 13 13 13 13 13 14 16 18 18 17 18 19 15 11 7 6 4 3 2 2 2 3 3 2 2 0 1 2 4 6 7 7 7 7 8 8 8 8 8 8 8 7 7 6 7 8 8 9 9 9 10 10 11 12 12 12 11 11 11 11 12 12 12 11 10 11 12 14 16 16 15 17 18 16 16 16
nan nan nan nan nan nan nan 14 8 10 10 11 9 nan 8 9 13 16 15 15 14 12 10 10 11 11 12 14 16 18 18 20 19 17 15 11 8 6 4 2 2 2 2 1 2 2 2 1 1 3 5 6 5 5 6 7 7 9 10 9 9 9 9 8 8 9 9 9 9 10 11 11 12 12 13 12 12 12 12 11 11 11 11 10 11 11 11 12 12 11 12 13 13 14 15 15 16
nan nan nan nan nan nan nan 15 11 6 5 11 nan nan 9 13 17 19 19 15 12 9 9 10 11 10 11 12 15 17 18 21 19 19 17 15 13 10 7 5 5 4 3 3 2 2 3 3 3 5 4 4 4 5 6 7 8 8 8 10 10 10 10 10 10 10 10 10 10 11 13 13 13 13 13 14 14 13 13 12 12 12 11 11 12 13 13 12 12 13 13 14 13 14 14 16 16
nan nan nan nan nan nan nan nan 11 6 3 8 nan nan nan 13 13 15 15 16 18 16 11 11 12 12 12 14 15 16 18 14 12 13 15 14 13 12 9 7 7 8 6 5 4 3 2 2 4 4 3 3 5 6 7 7 7 8 8 9 9 9 9 10 10 10 11 10 12 13 14 14 15 15 15 16 15 16 15 14 13 14 14 14 15 15 13 13 13 13 14 15 16 17 16 16 16
nan nan nan nan nan nan nan nan nan nan nan nan nan nan nan 8 11 13 18 22 21 18 15 12 nan nan 10 nan 14 13 11 11 11 14 15 15 15 13 11 9 9 11 10 10 7 3 1 1 2 2 2 3 4 5 5 6 5 6 8 8 10 9 9 10 12 12 13 14 14 15 16 16 17 16 17 18 17 17 17 16 16 16 17 18 18 16 17 16 16 16 18 18 17 18 17 17 16
nan nan nan nan nan nan nan nan nan nan nan nan nan nan nan 5 5 13 17 19 15 13 11 nan nan nan nan nan nan 12 11 10 10 12 13 14 14 13 11 11 11 10 9 8 7 6 3 1 1 2 2 3 4 5 6 6 7 7 7 9 10 12 12 13 13 13 16 16 16 16 16 18 18 18 18 19 18 18 18 19 19 20 20 21 21 19 19 18 18 18 19 19 20 18 18 18 17
nan nan nan nan nan nan nan nan nan nan nan nan nan nan nan nan 4 9 12 12 11 13 10 nan nan nan nan nan nan 8 12 10 8 8 8 10 12 13 14 14 12 12 12 12 10 8 5 7 6 6 5 6 6 7 8 9 10 11 11 11 11 12 12 14 16 15 17 17 18 18 18 19 20 20 20 21 20 21 21 22 23 24 25 23 24 23 22 21 20 20 21 21 21 21 20 20 20
nan nan nan nan nan nan nan nan nan nan nan nan nan nan nan nan nan 11 9 9 15 13 nan nan nan nan nan nan nan nan nan 8 10 10 10 9 10 10 11 12 13 13 13 13 13 13 11 9 9 8 8 8 9 10 11 13 12 14 14 14 13 12 13 15 16 17 17 19 18 19 21 21 22 22 22 23 22 23 24 25 27 27 26 25 26 25 23 21 21 21 21 21 21 21 22 22 22
nan nan nan nan nan nan nan nan nan nan nan nan nan nan nan nan nan nan 5 8 15 11 nan nan nan nan nan nan nan nan nan nan 6 7 9 9 8 9 10 12 13 14 14 13 13 13 13 12 12 12 12 11 12 13 15 15 15 15 17 16 16 16 16 13 14 17 20 19 21 23 23 23 23 24 23 24 25 25 26 27 27 27 27 26 25 26 23 21 20 21 21 21 21 23 24 24 23
nan nan nan nan nan nan nan nan nan nan nan nan nan nan nan nan nan nan nan nan 10 11 12 13 nan nan nan nan nan nan nan nan 10 10 10 11 12 12 12 12 12 13 13 13 13 13 14 14 14 14 14 14 15 16 18 18 19 19 19 18 19 20 20 19 19 21 21 23 24 24 24 23 23 23 25 nan nan 25 25 nan nan nan 26 25 24 24 22 20 20 20 21 22 22 24 26 26 26
nan nan nan nan nan nan nan nan nan nan nan nan nan nan nan nan nan nan nan nan nan 13 15 16 15 16 16 15 nan nan nan nan 12 11 11 12 12 11 10 11 12 11 12 13 13 14 14 14 15 16 17 17 18 20 21 21 21 23 23 23 22 22 23 23 23 24 26 25 27 25 25 24 23 23 nan nan nan nan 24 25 25 25 25 24 23 23 21 21 21 23 23 23 24 25 26 27 29
nan nan nan nan nan nan nan nan nan nan nan nan nan nan nan nan nan nan nan nan nan nan nan nan nan 15 17 18 17 16 nan nan 13 13 12 12 11 10 10 10 11 11 12 13 14 15 15 16 17 18 18 19 20 22 23 24 25 26 26 26 27 26 26 27 27 28 27 27 nan nan nan nan nan nan nan nan nan nan 24 25 24 25 25 25 23 24 23 22 22 23 24 24 25 26 26 28 29
nan nan nan nan nan nan nan nan nan nan nan nan nan nan nan nan nan nan nan nan nan nan nan nan nan 11 14 17 19 17 17 nan 14 13 11 11 11 11 12 11 11 11 12 13 14 16 17 18 19 20 20 21 23 24 25 26 26 27 28 29 29 29 29 30 29 27 27 27 nan nan nan nan nan nan nan nan nan nan 25 25 25 25 nan 25 24 25 24 24 23 24 24 25 27 nan nan 29 29
nan nan nan nan nan nan nan nan nan nan nan nan nan nan nan nan nan nan nan nan nan nan nan nan nan 16 14 16 18 20 20 18 17 16 14 11 12 12 12 11 12 13 14 14 15 16 18 18 20 20 20 22 23 24 25 25 26 26 26 28 29 29 30 28 28 27 26 nan nan nan nan nan nan nan nan nan nan nan 27 25 24 nan 26 25 25 nan 24 23 23 24 25 26 nan nan nan nan nan
nan nan nan nan nan nan nan nan nan nan nan nan nan nan nan nan nan nan nan nan nan nan nan nan nan nan nan 18 23 23 21 19 19 18 17 15 15 16 15 13 13 14 15 17 18 18 19 20 21 21 21 22 22 23 24 25 25 25 25 26 27 28 28 27 26 26 25 nan nan nan nan nan nan nan nan nan nan nan 27 nan nan nan nan 25 nan nan nan 24 24 25 27 nan nan nan nan nan nan
nan nan nan nan nan nan nan nan nan nan nan nan nan nan nan nan nan nan nan nan nan nan nan nan nan nan nan 19 20 22 22 21 19 20 20 19 18 18 17 17 16 15 17 19 21 21 21 21 22 21 21 22 22 23 23 24 23 24 25 26 27 27 26 25 25 26 nan nan nan nan nan nan nan nan nan nan nan nan nan nan nan nan nan nan nan nan nan 25 26 27 28 29 29 nan nan nan 33
nan nan nan nan nan nan nan nan nan nan nan nan nan nan nan nan nan nan nan nan nan nan nan nan nan nan nan nan 18 23 23 21 20 20 20 21 21 21 19 18 17 17 19 20 21 22 23 21 21 20 20 21 22 23 23 24 23 24 24 25 26 25 25 24 25 26 nan nan nan nan nan nan nan nan nan nan nan nan nan nan nan nan nan nan nan 26 25 26 27 27 28 28 28 nan nan nan nan
nan nan nan nan nan nan nan nan nan nan nan nan nan nan nan nan nan nan nan nan nan nan nan nan nan nan nan nan nan 22 25 24 21 19 19 20 21 20 18 17 17 17 19 19 20 21 21 21 21 20 21 22 22 22 23 25 25 25 25 26 26 25 24 24 24 nan nan nan nan nan nan nan nan nan nan nan nan nan nan nan nan 26 nan nan nan nan nan 26 27 28 28 29 28 31 33 nan 33
nan nan nan nan nan nan nan nan nan nan nan nan nan nan nan nan nan nan nan nan nan nan nan nan nan nan nan nan nan nan 26 24 21 18 18 21 19 19 20 20 20 19 19 19 20 21 22 22 22 21 21 21 22 23 25 26 26 26 25 26 26 25 25 26 nan nan nan nan nan nan nan nan nan nan nan nan nan nan nan nan nan nan nan nan nan nan nan nan nan 28 29 30 30 nan 34 33 nan
nan nan nan nan nan nan nan nan nan nan nan nan nan nan nan nan nan nan nan nan nan nan nan nan nan nan nan nan nan nan 23 21 20 18 19 23 25 27 25 24 25 24 24 22 20 19 19 20 22 23 22 22 22 24 26 27 28 27 27 27 26 27 26 26 nan nan nan nan nan nan nan nan nan nan nan nan nan nan nan 27 nan nan nan nan nan nan nan nan nan nan nan nan nan nan nan 33 34
nan nan nan nan nan nan nan nan nan nan nan nan nan nan nan nan nan nan nan nan nan nan nan nan nan nan nan nan nan nan nan 18 17 16 18 21 23 25 26 27 26 26 25 23 20 17 15 16 18 20 22 22 24 24 25 26 28 28 28 29 29 27 27 28 nan nan nan nan nan nan nan nan nan nan nan nan nan nan nan nan nan nan nan nan nan nan nan nan nan nan nan nan nan nan nan nan nan
nan nan nan nan nan nan nan nan nan nan nan nan nan nan nan nan nan nan nan nan nan nan nan nan nan nan nan nan nan nan nan 17 17 16 19 23 26 28 29 29 28 27 26 24 23 19 18 18 19 19 19 20 23 24 26 28 28 29 29 29 29 29 30 31 nan nan nan nan nan nan nan nan nan nan nan nan nan nan nan nan nan nan nan nan nan nan nan nan nan nan nan nan nan nan nan nan 36
nan nan nan nan nan nan nan nan nan nan nan nan nan nan nan nan nan nan nan nan nan nan nan nan nan nan nan nan nan nan nan 16 16 17 20 23 25 26 26 27 26 26 25 24 22 22 21 20 19 19 21 22 23 26 28 29 32 31 32 31 31 30 32 nan nan nan nan nan nan nan nan nan nan nan nan nan nan nan nan nan nan nan nan nan nan nan nan nan nan nan nan nan nan nan nan nan 39
nan nan nan nan nan nan nan nan nan nan nan nan nan nan nan nan nan nan nan nan nan nan nan nan nan nan nan nan nan nan nan nan 16 17 20 22 23 24 24 24 22 22 23 24 23 21 21 21 21 21 21 22 24 27 28 32 34 34 36 36 36 34 34 nan nan nan nan nan nan nan nan nan nan nan nan nan nan nan nan nan nan nan nan nan nan nan nan nan nan nan nan nan nan nan nan nan nan
Wind_Direction
26 43 54 57 64 65 67 83 89 nan nan nan nan nan nan 106 nan nan nan 94 98 107 112 nan nan nan nan nan 106 117 130 114 109 nan nan nan 118 113 120 121 125 121 120 124 126 117 118 113 347 335 4 349 348 357 344 27 26 357 356 360 2 2 1 13 21 8 5 13 24 27 31 31 24 18 14 10 7 8 10 13 14 13 12 15 17 18 20 19 16 13 11 15 23 39 52 58 53
41 45 45 49 59 69 76 79 nan nan nan nan nan nan nan nan nan nan 63 84 102 108 111 144 162 176 174 147 90 106 143 132 119 108 121 120 112 130 122 126 129 125 119 121 125 126 120 98 343 341 326 351 355 349 343 6 7 357 360 0 6 9 11 20 28 36 10 16 26 26 27 25 16 9 3 358 1 8 9 10 11 10 12 14 16 18 21 22 23 23 24 28 34 52 79 85 82
40 41 46 54 61 64 67 74 nan nan nan nan nan nan nan nan 81 81 76 53 25 64 126 127 nan 143 125 nan 140 131 nan 137 129 118 115 86 113 121 127 124 128 131 127 128 134 138 130 114 82 309 338 345 341 336 341 353 356 357 356 1 5 12 14 20 22 35 12 17 23 22 21 16 4 358 350 350 0 6 7 6 8 9 11 13 15 17 19 24 27 29 31 36 42 56 86 103 103
37 47 41 50 60 66 63 nan nan nan nan nan nan nan nan 74 74 59 59 23 4 28 114 131 133 nan nan 171 131 149 140 132 128 110 102 99 127 119 128 115 127 139 136 135 139 140 136 122 115 323 332 325 322 324 335 342 351 355 354 359 5 9 12 14 26 30 15 10 14 13 13 4 354 344 341 348 359 6 6 5 6 7 8 10 12 17 19 23 28 31 34 41 49 60 84 110 123
40 47 57 55 47 65 61 nan nan nan nan nan nan nan 72 65 55 45 58 50 62 80 108 105 129 132 181 160 125 127 131 140 132 129 122 138 150 139 134 137 144 146 142 141 140 139 139 196 139 167 325 324 332 337 343 345 341 349 360 9 17 13 10 16 26 21 8 8 10 11 5 356 349 343 345 355 2 6 6 4 4 4 5 6 10 13 15 20 27 30 35 40 49 61 85 110 127
46 52 65 62 59 55 65 nan nan nan nan nan nan 70 62 58 49 36 34 60 69 66 59 nan 107 100 141 149 133 141 121 132 125 133 119 114 158 151 142 135 138 149 143 136 138 141 145 212 358 12 4 325 331 337 339 339 340 344 2 15 29 22 6 19 21 9 4 8 10 8 1 354 349 348 354 0 5 8 6 3 4 3 3 3 5 6 7 13 19 24 26 36 45 52 70 105 120
38 51 69 72 66 62 53 nan nan nan nan 70 67 58 47 59 49 27 26 52 104 230 93 341 321 57 152 112 151 147 140 151 130 122 123 105 188 164 140 136 141 155 147 139 144 145 123 60 341 332 329 324 326 332 333 334 342 352 360 8 18 8 359 4 5 6 8 9 7 2 357 351 350 355 1 6 9 10 8 5 3 4 3 4 1 360 359 3 6 10 17 25 39 53 65 90 114
65 62 66 66 65 nan nan nan nan nan nan 68 72 30 59 53 54 68 60 42 nan 55 70 37 100 151 135 125 117 134 168 163 166 148 135 120 153 163 157 155 157 153 150 150 145 131 102 26 317 304 308 319 324 328 330 335 347 355 6 11 11 2 360 360 3 3 3 2 1 359 355 351 354 2 8 11 12 11 8 5 4 4 8 6 359 357 357 353 353 355 5 16 26 43 44 68 88
70 68 77 72 nan nan nan nan nan nan 67 61 nan 67 58 69 82 64 69 66 31 47 2 33 69 184 100 150 140 131 182 213 195 166 135 134 151 158 149 177 180 155 142 146 136 123 123 46 317 317 319 324 326 322 326 333 346 353 2 360 357 355 353 354 355 356 355 356 356 356 355 358 2 9 15 17 16 14 12 8 7 9 8 4 1 357 355 350 346 351 358 5 10 24 59 87 99
74 74 74 69 nan nan nan nan nan nan 61 66 56 39 40 67 81 71 22 47 41 43 79 95 99 301 56 176 110 137 169 253 232 194 157 156 174 175 170 204 307 319 42 142 137 140 123 24 334 331 333 332 328 327 331 335 344 351 353 353 352 351 349 349 350 351 354 357 357 358 360 4 10 15 20 20 19 15 12 13 11 10 7 6 8 7 2 358 359 1 5 7 5 5 22 40 79
68 76 nan nan nan nan nan nan nan 63 56 55 59 48 47 56 50 55 50 24 53 53 30 316 250 344 96 114 133 117 295 268 260 249 166 185 192 197 188 196 249 289 285 247 149 144 136 123 351 346 349 342 338 338 341 343 344 346 348 350 348 347 345 346 350 355 0 3 4 4 5 9 14 17 18 19 17 14 12 12 11 6 3 6 9 8 6 6 4 9 8 10 6 356 7 10 29
70 65 76 nan nan nan nan nan 54 57 58 44 45 46 46 34 43 34 25 13 34 29 29 55 14 8 173 111 100 37 315 282 274 269 233 214 201 206 209 191 210 233 263 265 276 262 353 90 71 351 340 340 339 341 343 343 344 346 348 351 351 349 351 355 359 4 7 7 7 6 8 12 15 17 17 16 16 15 12 10 9 10 3 2 1 2 358 354 4 3 10 8 356 3 7 50 36
69 nan nan nan nan nan nan 38 50 47 50 47 33 42 31 31 38 17 25 20 23 25 52 32 348 61 107 104 97 15 330 302 295 297 273 230 225 219 218 225 222 235 261 271 288 306 342 6 33 343 341 333 337 340 343 343 346 349 353 356 357 358 0 4 9 10 10 11 9 10 13 15 17 17 17 17 16 19 17 11 14 15 12 2 357 0 332 259 216 167 183 269 215 220 213 185 233
53 nan nan nan nan nan nan nan 39 29 53 49 43 30 25 39 47 19 358 7 32 51 36 358 50 322 282 68 75 42 357 312 311 299 279 260 247 245 251 244 252 238 244 271 286 301 299 286 296 329 327 327 356 346 347 346 350 354 358 0 0 3 6 10 14 16 17 16 17 17 17 18 19 18 17 18 20 23 22 21 23 22 22 3 347 287 223 221 200 176 201 182 201 217 198 210 222
58 nan nan nan nan nan nan nan 28 26 45 39 33 4 26 43 26 42 22 348 49 39 14 35 30 48 51 24 29 42 350 326 315 294 279 272 262 253 257 252 253 244 246 265 259 277 284 275 265 240 264 307 349 9 24 2 351 357 360 2 5 8 13 16 19 19 21 21 21 20 21 20 23 22 20 23 24 27 27 31 35 33 34 9 329 253 252 298 299 176 122 55 214 172 184 193 218
nan nan nan nan nan nan nan nan nan nan 47 37 17 350 358 20 29 37 45 44 13 40 37 27 56 56 15 45 40 4 335 326 308 288 284 282 267 254 257 262 259 251 242 259 260 259 271 267 244 225 205 195 137 121 37 54 7 0 3 8 14 18 21 23 21 21 20 19 19 20 21 29 28 28 25 27 31 32 34 34 42 47 45 25 352 314 356 359 328 270 104 25 48 79 122 233 223
nan nan nan nan nan nan nan nan nan nan 43 31 4 350 14 16 43 48 34 345 347 31 51 37 50 49 3 34 351 348 337 328 306 296 294 292 291 278 264 263 263 260 248 246 248 275 288 278 264 203 172 179 177 153 114 99 58 13 23 22 26 30 31 26 23 22 22 22 21 22 28 30 38 39 36 33 37 43 36 40 49 49 57 51 25 27 19 13 350 342 50 27 37 37 40 353 311
nan nan nan nan nan nan nan nan nan nan 9 20 1 354 344 7 45 16 328 345 19 33 29 49 51 50 358 349 339 350 343 335 322 320 324 325 326 316 315 313 315 328 318 304 266 355 280 170 76 147 146 125 152 149 135 106 94 48 75 77 74 56 42 34 29 35 30 42 26 31 27 34 29 40 31 42 34 44 49 53 51 48 53 48 30 66 50 20 357 11 7 48 49 48 38 349 348
nan nan nan nan nan nan nan nan nan nan 32 4 350 347 354 28 346 29 342 1 24 16 30 9 13 12 346 334 347 354 351 344 337 340 342 345 348 339 334 336 357 349 22 40 59 49 75 84 92 80 86 103 113 124 120 106 120 107 93 89 84 53 62 36 28 31 28 29 53 22 31 37 34 37 38 40 32 45 45 53 57 54 48 48 47 51 68 50 36 13 360 26 46 49 19 352 351
nan nan nan nan nan nan nan nan nan nan 356 356 342 349 6 52 22 30 353 354 16 17 5 20 7 6 354 346 353 359 358 351 354 353 356 357 360 355 353 360 19 39 37 47 51 72 65 74 73 83 82 99 102 104 117 116 130 113 109 108 85 83 67 32 17 11 20 27 36 28 23 34 36 40 54 59 55 49 47 58 63 60 56 46 50 45 57 55 47 33 6 30 34 8 352 0 353
nan nan nan nan nan nan nan nan nan nan 357 354 340 337 352 45 45 17 339 319 57 55 35 22 12 4 355 352 357 3 1 358 359 3 359 1 7 24 22 26 39 46 51 56 66 67 59 67 87 87 96 98 92 93 96 94 115 103 100 95 97 89 65 47 17 16 23 30 34 36 32 33 37 47 53 51 51 48 46 45 44 42 36 37 34 33 40 45 38 23 10 13 12 14 6 7 5
nan nan nan nan nan nan nan nan nan 7 16 343 334 341 16 23 49 14 349 352 40 47 40 34 9 5 354 355 0 2 3 1 5 9 6 5 8 21 39 59 82 77 65 65 67 67 65 75 84 94 91 85 83 81 78 78 82 80 79 82 78 74 52 40 37 35 34 33 33 35 34 34 45 51 55 58 54 51 55 57 54 51 48 45 36 42 43 44 43 33 25 22 18 16 17 11 5
nan nan nan nan nan nan nan nan nan nan 7 350 347 0 344 17 41 28 10 57 87 56 17 13 4 360 359 356 358 2 4 6 8 12 10 12 20 36 48 66 66 65 77 79 83 85 80 77 81 84 81 80 76 80 82 81 81 81 77 72 63 64 50 40 48 50 49 40 36 36 35 35 42 47 56 60 63 61 62 63 63 59 56 51 42 42 45 41 40 37 29 25 19 17 20 17 11
nan nan nan nan nan nan nan nan nan nan 353 9 353 345 3 11 28 38 52 94 73 347 347 360 358 352 353 359 8 7 9 12 15 17 19 23 25 36 52 61 78 95 93 90 91 95 91 78 79 77 79 77 80 79 78 75 79 74 71 65 60 59 47 52 51 50 48 46 42 40 38 34 38 47 56 60 62 63 60 62 63 61 56 54 45 39 43 42 39 35 31 29 22 15 18 19 16
nan nan nan nan nan nan nan nan nan nan nan nan 340 358 29 27 30 14 71 75 345 325 326 343 352 353 5 3 10 13 13 20 23 25 38 54 50 59 76 91 93 95 87 91 97 94 90 86 74 71 77 74 79 76 73 75 75 73 74 64 61 55 52 53 48 45 48 48 45 38 36 41 43 47 53 57 58 58 58 58 57 57 54 50 49 47 38 43 41 34 29 24 20 21 18 20 18
nan nan nan nan nan nan nan nan nan nan nan nan 345 32 nan nan 346 64 69 37 358 329 328 342 353 357 8 17 13 15 22 23 27 31 38 52 57 56 69 81 86 85 86 92 93 91 92 85 71 68 70 72 72 71 77 73 74 73 70 67 61 58 54 48 45 48 50 49 51 41 40 43 43 42 53 54 48 54 50 48 46 46 45 38 34 41 34 31 35 33 24 17 14 12 11 11 17
nan nan nan nan nan nan nan nan nan nan nan nan 351 nan nan nan 29 65 54 13 357 343 343 353 360 5 13 22 29 27 23 26 29 38 48 61 62 63 68 78 79 83 89 88 88 90 90 78 72 69 68 68 72 71 73 73 72 72 69 66 61 58 55 47 46 50 52 53 53 44 43 50 48 51 58 50 44 46 48 47 45 40 41 34 27 30 25 32 28 26 19 26 18 10 7 5 8
nan nan nan nan nan nan nan nan nan nan nan nan nan nan nan 56 88 52 11 7 360 350 360 359 11 13 14 21 30 48 45 46 47 43 38 40 61 67 66 74 76 83 81 82 89 92 86 71 68 66 65 68 65 64 65 66 65 65 65 61 58 57 52 51 47 45 50 51 51 46 44 45 51 55 58 53 45 36 35 37 39 36 35 27 10 4 7 26 23 14 22 24 14 7 8 5 1
nan nan nan nan nan nan nan nan nan nan nan nan nan 282 51 61 62 45 4 352 0 357 5 5 9 17 15 15 25 45 49 50 61 60 56 56 61 72 65 78 80 82 98 87 89 86 74 70 70 65 63 64 59 55 56 59 61 61 59 56 55 52 51 49 49 45 46 47 44 41 37 38 40 47 50 49 50 29 13 14 22 24 28 360 353 354 357 355 25 18 19 9 4 5 8 11 1
nan nan nan nan nan nan nan nan nan nan nan nan 347 54 60 56 nan 7 3 348 354 360 11 14 12 15 17 14 16 33 50 52 62 65 67 67 60 62 66 78 83 91 100 105 94 78 82 86 79 74 63 59 56 55 54 58 57 57 58 55 51 46 45 45 48 46 44 41 40 38 35 30 31 32 31 32 20 7 3 2 353 355 354 342 322 0 9 350 16 15 5 358 1 0 4 6 2
nan nan nan nan nan nan nan nan nan nan nan nan nan nan nan nan nan 11 4 352 349 2 15 17 13 14 17 16 11 19 33 49 55 61 64 61 58 65 64 76 78 88 111 103 74 67 68 73 74 75 60 57 53 49 47 48 48 47 47 46 42 38 38 34 39 40 38 35 26 34 30 28 27 23 17 10 3 356 337 325 338 342 12 354 346 352 356 355 358 359 350 346 352 355 358 357 355
nan nan nan nan nan nan nan nan nan 348 nan nan nan nan nan nan 29 14 6 3 357 355 8 18 19 17 17 17 12 13 19 31 51 51 51 50 48 63 65 64 72 86 75 71 73 77 69 68 62 60 52 46 44 38 38 35 32 32 34 36 34 27 24 23 23 26 31 27 24 24 19 20 21 17 8 355 351 342 338 339 337 347 358 342 345 349 345 345 343 339 340 339 341 347 347 348 347
nan nan nan nan nan nan nan nan nan 88 3 74 81 nan nan 59 29 16 15 6 8 359 4 15 23 22 20 22 19 15 10 22 38 44 47 50 60 68 75 74 61 59 68 73 64 67 72 64 50 42 36 34 35 31 30 29 23 26 28 34 32 18 14 20 11 8 17 23 19 22 14 10 13 6 357 349 343 340 339 339 341 356 355 351 344 347 343 340 333 333 334 339 343 346 346 346 343
nan nan nan nan nan nan nan nan 71 57 25 43 nan nan nan 64 11 14 13 9 9 9 6 16 27 28 26 27 26 22 16 16 26 30 35 35 64 61 85 89 57 54 68 61 48 34 42 46 47 36 33 27 28 29 29 29 28 25 30 34 33 24 28 24 11 358 15 18 11 18 9 4 1 347 340 339 346 340 337 335 340 346 346 345 347 343 338 328 329 331 336 337 340 339 341 339 340
nan nan nan nan nan nan nan nan 63 31 61 77 nan nan 83 63 20 16 11 8 12 14 11 16 28 33 30 30 31 28 22 20 27 25 21 16 26 49 59 62 71 67 78 46 40 50 70 54 22 21 13 17 25 32 37 37 31 30 30 27 31 32 32 28 11 12 21 15 9 11 358 351 348 337 340 341 343 340 336 336 338 339 340 337 330 326 327 325 326 333 334 333 334 336 337 337 338
nan nan nan nan nan nan nan 104 114 24 50 83 76 nan 67 48 25 21 16 10 15 27 22 16 26 34 35 34 34 30 26 27 26 23 20 12 10 13 23 5 13 31 42 29 1 308 322 336 24 7 5 10 24 40 40 39 33 29 28 25 26 26 23 15 11 18 16 12 9 353 345 342 345 343 343 337 338 338 338 339 335 325 326 323 321 323 325 325 331 329 324 324 325 327 328 333 332
nan nan nan nan nan nan nan 129 117 84 129 99 nan nan 38 25 18 17 14 9 22 31 28 19 17 26 33 38 37 33 28 28 21 19 18 16 11 2 358 338 337 342 339 338 329 320 329 341 332 19 10 2 18 28 34 29 29 30 26 23 22 13 7 4 6 7 1 2 351 343 340 339 344 342 339 335 338 341 335 330 329 326 323 322 325 329 333 331 326 324 324 321 322 321 327 326 327
nan nan nan nan nan nan nan nan 143 84 68 127 nan nan nan 30 21 13 7 3 21 24 23 22 14 18 24 27 32 31 32 30 12 12 17 17 12 1 346 329 322 330 334 329 354 1 344 320 347 17 359 9 20 20 20 18 20 18 3 1 348 347 349 344 349 344 349 337 333 333 333 335 338 339 336 336 332 331 328 326 325 327 325 324 326 326 319 314 310 317 323 322 320 324 332 330 329
nan nan nan nan nan nan nan nan nan nan nan nan nan nan nan 68 26 12 7 11 18 20 18 16 nan nan 24 nan 27 27 27 26 12 14 10 13 12 2 349 343 341 349 344 346 358 357 338 292 6 359 356 357 15 7 351 3 355 350 343 330 334 326 329 332 333 332 328 330 329 330 330 328 330 331 332 332 329 327 327 330 333 331 327 323 317 310 310 309 314 316 322 326 325 322 328 330 321
nan nan nan nan nan nan nan nan nan nan nan nan nan nan nan 123 45 27 20 12 10 14 22 nan nan nan nan nan nan 12 13 11 12 9 8 11 9 4 356 354 354 347 345 347 347 356 340 344 358 345 346 342 338 341 340 335 324 320 318 313 319 311 318 313 305 304 319 319 328 326 324 323 324 325 327 325 323 326 330 334 333 329 328 322 319 315 312 315 316 317 319 320 321 319 318 325 324
nan nan nan nan nan nan nan nan nan nan nan nan nan nan nan nan 38 45 32 19 4 360 9 nan nan nan nan nan nan 9 4 355 353 354 2 2 6 9 6 2 351 350 352 351 349 349 339 356 357 347 333 331 321 320 323 304 294 290 287 275 286 287 282 295 304 305 311 318 313 319 322 318 319 319 319 321 322 329 331 331 329 328 322 324 321 317 321 321 316 316 318 319 322 322 320 324 325
nan nan nan nan nan nan nan nan nan nan nan nan nan nan nan nan nan 51 8 359 16 357 nan nan nan nan nan nan nan nan nan 346 345 345 347 352 3 6 7 2 355 354 355 353 349 350 344 344 342 335 321 314 316 318 313 303 309 308 304 305 306 303 306 303 315 317 311 309 314 311 308 312 313 313 315 320 324 322 324 325 323 323 323 323 323 321 318 313 314 316 320 320 322 326 323 319 327
nan nan nan nan nan nan nan nan nan nan nan nan nan nan nan nan nan nan 356 7 19 357 nan nan nan nan nan nan nan nan nan nan 339 328 322 330 348 352 359 0 359 355 356 344 338 340 341 335 331 327 321 315 312 310 309 307 310 310 318 318 313 312 313 306 300 305 309 309 302 307 307 305 308 311 314 315 315 316 316 317 319 321 321 320 319 314 315 316 315 314 315 318 321 322 324 324 328
nan nan nan nan nan nan nan nan nan nan nan nan nan nan nan nan nan nan nan nan 25 27 42 39 nan nan nan nan nan nan nan nan 334 332 331 337 339 344 352 354 348 353 342 328 329 326 329 327 319 319 312 311 308 305 309 311 313 312 312 311 309 309 311 312 308 307 305 301 303 303 301 303 305 308 308 nan nan 311 310 nan nan nan 315 314 317 316 318 316 311 312 313 315 319 324 326 327 327
nan nan nan nan nan nan nan nan nan nan nan nan nan nan nan nan nan nan nan nan nan 50 50 43 34 22 19 16 nan nan nan nan 340 328 328 329 333 339 338 342 346 333 319 319 319 316 315 314 314 310 312 310 307 309 310 312 311 311 311 308 307 304 304 305 303 302 305 302 301 297 300 302 303 302 nan nan nan nan 307 310 312 312 313 315 319 316 317 318 320 315 316 320 323 325 326 325 322
nan nan nan nan nan nan nan nan nan nan nan nan nan nan nan nan nan nan nan nan nan nan nan nan nan 12 10 9 11 12 nan nan 348 342 328 323 322 324 329 329 325 323 309 308 309 304 304 302 306 308 311 307 306 310 310 312 311 307 308 308 309 304 299 296 299 305 305 303 nan nan nan nan nan nan nan nan nan nan 307 308 312 318 321 322 321 320 318 321 321 320 321 322 322 322 324 323 324
nan nan nan nan nan nan nan nan nan nan nan nan nan nan nan nan nan nan nan nan nan nan nan nan nan 8 6 4 3 6 3 nan 353 347 334 325 318 312 298 315 321 301 298 303 303 301 301 302 306 310 313 305 304 309 310 312 309 308 309 309 310 307 303 301 301 303 302 302 nan nan nan nan nan nan nan nan nan nan 310 313 316 322 nan 323 322 320 323 323 323 322 320 319 320 nan nan 321 323
nan nan nan nan nan nan nan nan nan nan nan nan nan nan nan nan nan nan nan nan nan nan nan nan nan 13 3 357 3 6 359 356 356 352 347 328 298 299 299 303 299 306 301 304 304 304 306 306 306 312 308 305 304 307 310 312 310 311 311 312 313 310 307 304 307 309 309 nan nan nan nan nan nan nan nan nan nan nan 312 315 317 nan 323 323 322 nan 322 322 321 319 318 320 nan nan nan nan nan
nan nan nan nan nan nan nan nan nan nan nan nan nan nan nan nan nan nan nan nan nan nan nan nan nan nan nan 358 3 359 352 347 347 345 342 329 322 318 317 318 307 308 313 315 315 312 311 311 312 313 312 306 307 309 314 315 314 315 314 315 314 310 309 308 308 308 309 nan nan nan nan nan nan nan nan nan nan nan 314 nan nan nan nan 321 nan nan nan 323 322 323 322 nan nan nan nan nan nan
nan nan nan nan nan nan nan nan nan nan nan nan nan nan nan nan nan nan nan nan nan nan nan nan nan nan nan 349 348 348 349 346 342 336 333 332 331 326 324 322 319 316 317 317 316 314 312 312 313 314 313 308 309 311 315 316 317 316 314 314 313 310 310 308 307 308 nan nan nan nan nan nan nan nan nan nan nan nan nan nan nan nan nan nan nan nan nan 326 324 325 324 323 322 nan nan nan 320
nan nan nan nan nan nan nan nan nan nan nan nan nan nan nan nan nan nan nan nan nan nan nan nan nan nan nan nan 325 338 341 340 339 337 336 334 331 327 324 324 325 325 323 319 314 315 312 313 314 315 310 310 314 316 313 316 314 313 312 312 310 308 309 306 306 307 nan nan nan nan nan nan nan nan nan nan nan nan nan nan nan nan nan nan nan 321 322 324 325 322 321 321 318 nan nan nan nan
nan nan nan nan nan nan nan nan nan nan nan nan nan nan nan nan nan nan nan nan nan nan nan nan nan nan nan nan nan 326 329 331 334 342 347 347 340 333 328 328 330 329 327 321 320 314 314 318 317 317 316 313 314 313 314 314 313 311 312 310 310 309 305 302 303 nan nan nan nan nan nan nan nan nan nan nan nan nan nan nan nan 319 nan nan nan nan nan 324 324 323 321 318 319 314 315 nan 321
nan nan nan nan nan nan nan nan nan nan nan nan nan nan nan nan nan nan nan nan nan nan nan nan nan nan nan nan nan nan 319 323 327 337 345 347 340 338 336 335 332 328 323 326 329 325 327 321 317 319 317 311 313 315 313 311 311 312 312 309 306 304 304 305 nan nan nan nan nan nan nan nan nan nan nan nan nan nan nan nan nan nan nan nan nan nan nan nan nan 322 321 320 321 nan 316 321 nan
nan nan nan nan nan nan nan nan nan nan nan nan nan nan nan nan nan nan nan nan nan nan nan nan nan nan nan nan nan nan 315 318 323 333 340 340 340 342 342 341 339 337 337 336 336 332 327 320 319 318 314 315 313 311 313 313 313 311 308 308 307 308 306 303 nan nan nan nan nan nan nan nan nan nan nan nan nan nan nan 308 nan nan nan nan nan nan nan nan nan nan nan nan nan nan nan 317 320
nan nan nan nan nan nan nan nan nan nan nan nan nan nan nan nan nan nan nan nan nan nan nan nan nan nan nan nan nan nan nan 303 308 326 330 331 334 338 341 342 341 340 339 339 338 332 324 321 317 315 321 321 315 308 308 307 309 306 305 308 309 308 304 301 nan nan nan nan nan nan nan nan nan nan nan nan nan nan nan nan nan nan nan nan nan nan nan nan nan nan nan nan nan nan nan nan nan
nan nan nan nan nan nan nan nan nan nan nan nan nan nan nan nan nan nan nan nan nan nan nan nan nan nan nan nan nan nan nan 311 315 324 326 330 336 339 340 340 338 337 336 337 337 334 341 337 329 325 317 305 304 311 309 308 308 306 305 303 305 304 302 300 nan nan nan nan nan nan nan nan nan nan nan nan nan nan nan nan nan nan nan nan nan nan nan nan nan nan nan nan nan nan nan nan 320
nan nan nan nan nan nan nan nan nan nan nan nan nan nan nan nan nan nan nan nan nan nan nan nan nan nan nan nan nan nan nan 305 315 320 319 327 333 336 338 337 336 334 332 329 330 340 347 338 336 330 324 321 318 315 311 312 307 306 304 304 301 298 299 nan nan nan nan nan nan nan nan nan nan nan nan nan nan nan nan nan nan nan nan nan nan nan nan nan nan nan nan nan nan nan nan nan 316
nan nan nan nan nan nan nan nan nan nan nan nan nan nan nan nan nan nan nan nan nan nan nan nan nan nan nan nan nan nan nan nan 315 315 315 324 328 333 336 332 327 322 325 332 339 342 343 343 343 336 331 327 324 317 317 313 312 312 312 306 304 304 302 nan nan nan nan nan nan nan nan nan nan nan nan nan nan nan nan nan nan nan nan nan nan nan nan nan nan nan nan nan nan nan nan nan nan